Location: Caltech
(34.1382°N, 118.1253°W)
Time: 22:44:06
(UTC-08:00)

KITSAT 1 - Visible Passes

Search period start: 12 February 2016 00:00
Search period end: 22 February 2016 00:00
Orbit: 1303 x 1327 km, 66.1° (Epoch: 12 February)

Date Brightness Start Highest point End Pass type
(mag) Time Alt. Az. Time Alt. Az. Time Alt. Az.
12 Feb 10.7 18:11:49 10° NNW 18:19:17 38° NE 18:26:40 10° ESE visible
12 Feb 11.1 20:07:08 10° NW 20:14:40 44° WSW 20:22:11 10° S visible
13 Feb 10.3 18:27:36 10° NNW 18:35:35 56° ENE 18:43:28 10° SE visible
13 Feb 11.8 20:23:52 10° NW 20:30:27 28° WSW 20:37:01 10° SSW visible
14 Feb 10.2 18:43:34 10° NNW 18:51:44 81° ENE 18:59:50 10° SSE visible
14 Feb 12.5 20:41:19 10° WNW 20:46:08 17° WSW 20:50:57 10° SW visible
15 Feb 10.5 18:59:42 10° NNW 19:07:46 69° WSW 19:15:46 10° SSE visible
16 Feb 11.2 19:16:04 10° NW 19:23:40 45° WSW 19:31:13 10° S visible
17 Feb 12.0 19:32:46 10° NW 19:39:28 29° WSW 19:46:07 10° SSW visible
18 Feb 10.3 17:52:32 10° NNW 18:00:43 79° ENE 18:08:48 10° SSE visible
18 Feb 12.7 19:50:08 10° WNW 19:55:08 18° WSW 20:00:08 10° SW visible
19 Feb 10.6 18:08:40 10° NNW 18:16:44 71° WSW 18:24:45 10° SSE visible
20 Feb 11.4 18:25:01 10° NW 18:32:40 47° WSW 18:40:16 10° S visible
21 Feb 12.2 18:41:41 10° NW 18:48:27 30° WSW 18:55:12 10° SSW visible
